Location: Praha
(50.0830°N, 14.4670°E)
Time: 11:38:34
(UTC+02:00)

ISS - Pass Details

Date: 04 May 2025
Orbit: 416 x 419 km, 51.6° (Epoch: 18 May)

Event Time Altitude Azimuth Distance (km) Brightness Sun altitude
Exits shadow 04:34:27 - 285° (WNW) 2,284 -0.4 -8.7°
Reaches altitude 10° 04:36:21 10° 285° (WNW) 1,496 -1.3 -8.5°
Maximum altitude 04:39:43 86° 198° (SSW) 423 -3.8 -8.1°
Drops below altitude 10° 04:43:04 10° 109° (ESE) 1,493 -0.5 -7.6°
Sets 04:45:10 0° 109° (ESE) 2,356 0.6 -7.4°
